SCP
0 0 0 0 0 0 0 0 0 -0 -0 -0 -0 -0 0 0 0 0 -0 0 0 0 0 -0 0 0 0 0 0 0 0 0 0 0 0 0 0 0
0 0 0 0 0 0 0 0 0 0 -0 -0 -0 -0 0 0 0 0 -0 -0 0 0 0 0 -0 0 -0 -0 0 0 0 0 0 0 0 0 0 0
0 0 0 0 0 0 0 0 0 0 0 -0 -0 -0 0 0 0 0 0 0 0 -0 0 -0 0 0 -0 -0 -0 0 0 0 0 0 0 0 0 0
0 0 0 0 0 0 0 0 0 0 0 0 0 0 0 0 0 0 0 0 0 0 -0 -0 -0 0 0 -0 -0 -0 -0 0 0 0 0 0 0 0
0 0 0 0 0 0 0 0 0 0 0 0 0 0 0 0 0 0 0 0 0 0 -0 -0 -0 -0 -0 -0 -0 0 -0 0 0 0 0 0 0 0
0 0 0 0 0 0 0 0 0 0 0 0 0 0 -0 0 0 0 0 0 0 0 0 0 0 -0 -0 -0 -0 -0 0 0 0 0 0 0 0 0
0 0 0 0 0 0 0 0 0 0 0 0 0 0 0 -0 0 0 0 0 0 0 0 0 0 0 -0 -0 -0 -0 0 -0 0 0 0 0 0 0
0 0 0 0 0 0 -0 -0 -0 0 0 0 0 0 0 0 0 0 0 0 0 0 0 0 0 0 0 0 0 0 0 0 0 0 -0 0 0 0
0 -0 -0 0 0 0 -0 -0 -0 -0 -0 -0 -0 -0 0 0 0 0 0 0 0 0 0 0 0 0 0 0 0 0 0 0 0 0 0 0 0 0
0 0 0 0 0 0 0 0 0 0 0 0 0 0 0 0 0 0 0 0 0 0 0 0 0 0 0 -0 0 0 0 0 0 0 0 0 0 0
0 0 -0 0 0 0 0 0 0 0 0 0 0 0 0 0 0 0 0 0 0 0 0 0 0 0 0 0 -0 0 0 0 0 0 0 -0 0 0
0 0 0 0 0 0 0 0 0 0 0 0 0 0 0 0 0 0 0 0 0 0 0 0 0 0 0 0 0 0 0 0 0 0 0 0 0 0
0 0 0 0 -0 -0 0 0 0 0 0 0 0 0 0 0 0 0 0 0 0 0 0 0 0 0 0 0 0 0 0 0 0 0 0 0 0 0
0 0 0 0 0 -0 -0 -0 -0 0 0 0 0 0 0 0 0 0 0 0 0 0 0 0 0 0 0 0 0 0 0 0 0 0 0 0 0 0
0 0 0 0 0 0 0 -0 -0 0 0 0 0 0 0 0 0 0 0 0 0 0 0 0 0 0 0 0 0 0 0 0 0 0 0 0 0 0
0 0 0 0 0 0 -0 -0 0 0 0 0 0 0 0 0 0 0 0 0 0 0 0 0 0 0 0 0 0 0 0 0 0 0 0 0 0 0
0 0 0 0 0 0 0 0 0 0 0 0 0 0 0 0 0 0 0 0 0 0 0 0 0 0 0 0 0 0 0 0 0 0 0 0 0 0
0 -0 0 0 0 0 0 0 0 0 0 0 0 0 0 -0 0 0 0 0 0 0 0 0 0 0 0 0 0 0 0 0 0 0 0 0 0 0
-0 -0 -0 0 0 0 0 0 0 0 0 0 0 -0 -0 0 0 0 0 0 0 0 0 0 0 0 0 0 0 0 0 0 0 0 0 0 0 0
-0 -0 0 0 0 0 0 0 0 -0 0 0 0 0 -0 -0 0 0 0 0 0 0 0 0 0 0 0 0 0 0 0 0 0 0 0 0 0 0
0 0 0 0 0 0 0 0 0 0 0 0 0 0 0 -0 0 0 0 0 0 0 0 0 0 0 0 0 0 0 0 0 0 0 0 0 0 0
-0 0 0 0 0 0 0 0 0 0 0 0 0 0 0 0 0 -0 0 0 0 0 0 0 0 0 0 0 0 0 0 0 0 0 0 0 0 0
0 -0 0 0 0 0 0 0 0 0 0 0 0 0 0 0 0 0 0 -0 0 0 0 0 0 0 0 0 0 0 0 0 0 0 0 0 0 0
Wind_Speed_500mb
68 67 69 68 67 70 71 69 72 74 78 67 67 63 65 57 56 65 62 50 45 43 45 56 70 69 71 91 71 122 105 108 99 91 99 99 99 95
70 71 70 70 69 67 69 69 68 70 81 68 65 57 49 51 60 56 69 66 66 56 49 54 59 69 75 70 78 80 133 109 106 102 97 104 106 105
70 70 73 70 69 69 67 66 69 71 80 79 72 68 69 72 75 71 55 63 65 73 62 51 52 52 60 70 74 74 75 124 116 106 104 106 107 111
75 73 76 77 79 77 77 77 76 75 78 90 74 72 69 65 66 67 65 68 75 70 67 62 60 63 67 70 76 74 80 83 115 110 105 106 108 120
73 75 76 74 77 79 79 77 76 72 73 82 76 64 58 59 59 62 68 64 63 62 66 64 73 72 66 65 70 85 77 78 107 115 110 112 113 121
68 66 68 73 77 81 84 90 92 90 87 90 98 83 71 65 59 62 67 66 75 73 73 77 78 79 77 83 80 73 83 80 72 108 121 119 124 124
88 91 92 94 96 98 102 107 95 91 85 85 94 83 80 67 55 54 59 67 67 67 68 69 74 76 71 77 81 79 75 79 89 98 100 140 133 128
93 96 96 90 82 79 80 81 81 80 80 78 86 83 77 69 59 57 44 44 58 60 63 68 72 75 77 70 70 78 78 86 81 83 99 123 144 143
65 65 69 67 67 70 68 67 69 71 73 78 89 82 72 70 67 78 71 59 36 51 52 65 70 72 74 75 78 75 72 75 85 88 86 94 149 150
62 66 73 72 69 68 67 70 69 68 70 75 83 85 81 73 71 69 75 87 68 44 45 59 66 73 74 74 74 66 63 54 81 85 81 80 132 162
70 75 74 66 83 69 68 77 81 83 71 68 72 73 75 72 64 61 64 65 77 80 45 39 51 62 64 69 66 59 62 61 66 74 72 74 101 153
68 68 70 70 67 67 65 68 72 72 73 70 70 70 71 70 71 70 65 68 62 59 71 52 47 54 60 62 63 56 61 61 61 61 71 76 95 146
66 71 67 60 59 55 60 61 68 65 66 74 67 63 61 60 64 70 76 74 71 67 60 45 36 47 51 49 52 43 43 45 54 55 43 66 91 139
59 61 59 53 48 48 52 58 61 62 62 58 69 69 67 59 55 58 62 70 76 71 68 86 67 49 52 51 50 49 42 34 43 50 56 76 97 124
48 48 45 38 35 35 37 40 43 50 58 66 76 68 65 56 54 54 56 61 60 61 68 80 77 57 59 53 47 36 30 28 34 49 68 93 103 107
41 40 43 33 32 29 32 31 27 36 46 53 63 57 65 57 50 49 48 54 59 56 60 56 56 62 57 47 41 40 38 33 45 54 69 85 96 104
40 41 43 38 34 32 23 15 22 27 11 22 34 34 38 44 44 37 41 49 51 68 64 54 47 48 44 38 36 34 46 46 47 60 66 72 67 68
43 54 46 46 40 38 35 21 20 24 20 13 2 11 25 29 30 38 35 47 45 38 46 45 38 32 27 23 24 28 43 50 47 58 62 65 59 56
38 42 52 44 41 40 37 34 26 16 17 10 1 11 17 14 23 30 38 35 31 37 37 42 45 40 39 32 25 28 40 52 51 56 55 55 55 51
38 40 46 53 44 40 37 32 28 26 14 4 4 6 12 9 10 16 18 21 27 36 34 36 43 45 43 36 35 36 40 44 48 51 52 47 40 39
33 35 38 44 47 42 38 33 28 25 20 20 21 19 7 1 7 13 14 19 26 33 36 36 36 33 27 23 28 29 31 29 36 44 49 46 43 43
31 32 34 36 40 43 39 37 34 29 24 19 10 7 2 6 8 11 12 17 23 30 34 37 35 30 27 30 35 36 39 42 40 40 38 45 42 39
31 31 32 33 34 37 41 43 39 37 36 25 19 14 8 13 16 15 16 18 22 25 30 33 31 30 28 27 31 38 40 41 40 41 38 32 31 28
Wind_Direction_500mb
284 284 282 283 281 281 282 280 281 288 286 286 286 286 277 272 280 268 274 277 277 274 274 269 267 263 258 254 256 230 230 227 234 229 222 218 216 217
288 286 284 284 284 280 278 277 277 282 286 283 282 283 281 269 263 272 268 271 278 282 280 279 275 269 267 265 260 256 235 226 228 228 226 222 220 221
286 285 285 285 283 282 282 283 282 281 277 282 283 282 278 275 272 268 273 267 272 275 276 284 286 281 279 272 271 263 246 227 226 226 226 224 221 221
285 284 282 281 280 280 280 278 278 277 278 282 283 283 281 279 275 273 267 267 268 272 274 273 272 278 288 281 271 264 251 241 226 226 226 225 223 219
285 284 284 283 281 281 280 279 277 276 274 275 280 280 276 275 275 270 266 267 268 266 268 271 275 278 282 289 287 267 260 253 239 227 225 228 224 221
281 279 276 275 275 274 274 273 273 273 274 274 276 278 278 276 275 274 268 261 258 264 269 274 276 278 278 279 286 277 268 257 263 241 237 232 226 222
282 282 280 279 279 279 278 276 274 271 270 271 271 272 270 273 272 273 267 266 262 264 268 271 275 275 278 280 275 279 268 254 259 256 249 231 230 222
286 286 286 286 285 284 281 276 271 270 267 264 265 264 266 264 261 263 273 266 261 260 265 266 270 274 278 275 279 275 267 248 245 253 254 239 224 228
293 292 292 292 293 291 290 287 282 272 263 265 267 264 264 263 263 258 256 271 264 260 263 266 269 272 273 274 277 276 262 252 244 243 248 245 234 229
298 299 298 292 293 290 287 285 282 280 272 263 262 266 268 270 269 264 264 255 263 269 265 266 266 268 274 276 278 271 257 261 242 248 245 245 231 221
305 302 300 291 295 290 285 280 282 281 280 270 265 266 268 268 268 268 260 252 257 258 273 275 267 269 269 275 279 269 261 258 250 243 244 266 235 223
305 306 303 295 291 287 283 280 277 277 275 274 272 269 263 261 257 257 259 253 248 247 253 268 261 264 264 269 281 267 268 265 248 243 245 250 239 222
312 313 312 309 293 288 284 277 276 275 272 274 269 268 264 259 256 255 252 253 255 246 235 241 274 264 250 258 279 280 264 267 246 240 242 232 240 212
321 320 322 319 309 290 282 277 278 275 264 266 265 262 260 259 259 257 254 252 252 253 245 245 249 271 258 254 268 265 265 255 250 243 232 220 206 203
326 328 320 316 308 297 292 288 281 272 265 258 253 252 256 259 259 260 258 257 251 247 242 237 241 259 256 252 261 246 234 221 226 224 207 199 193 188
335 336 339 330 330 320 306 298 305 289 276 266 257 256 248 244 251 256 258 256 242 240 233 225 239 250 242 239 247 251 232 209 204 206 206 199 197 194
3 3 8 4 359 8 8 2 355 354 273 261 257 253 241 237 245 248 243 232 225 216 199 202 219 246 231 232 240 240 222 210 205 203 200 188 187 193
20 17 14 20 20 20 28 34 18 13 32 50 85 235 237 243 237 242 256 222 215 206 206 206 210 203 209 222 228 239 225 214 207 203 196 194 192 194
30 29 21 24 27 30 32 40 41 33 24 30 226 214 253 255 254 215 230 215 217 214 220 226 219 220 225 217 229 220 226 221 214 208 208 208 207 204
42 34 33 28 29 31 31 31 37 51 53 39 289 189 152 158 176 188 198 216 215 215 216 217 210 216 224 236 218 212 215 224 216 210 205 208 211 214
42 44 40 41 37 37 35 37 39 39 38 66 110 135 144 45 175 191 199 210 218 216 207 206 207 216 221 223 206 195 206 210 231 223 213 208 201 199
44 42 41 43 47 48 42 40 39 39 43 51 53 73 158 194 191 194 202 201 203 210 206 202 200 210 211 205 197 184 185 189 203 212 215 215 209 199
46 48 49 48 48 50 53 49 43 41 40 47 58 64 82 132 161 181 191 194 197 196 195 188 188 194 199 199 202 190 188 190 191 197 198 209 229 233
Wind_Speed_850mb
68 67 69 68 67 70 71 69 72 74 78 67 67 63 65 57 56 65 62 50 45 43 45 56 70 69 71 91 71 122 105 108 99 91 99 99 99 95
70 71 70 70 69 67 69 69 68 70 81 68 65 57 49 51 60 56 69 66 66 56 49 54 59 69 75 70 78 80 133 109 106 102 97 104 106 105
70 70 73 70 69 69 67 66 69 71 80 79 72 68 69 72 75 71 55 63 65 73 62 51 52 52 60 70 74 74 75 124 116 106 104 106 107 111
75 73 76 77 79 77 77 77 76 75 78 90 74 72 69 65 66 67 65 68 75 70 67 62 60 63 67 70 76 74 80 83 115 110 105 106 108 120
73 75 76 74 77 79 79 77 76 72 73 82 76 64 58 59 59 62 68 64 63 62 66 64 73 72 66 65 70 85 77 78 107 115 110 112 113 121
68 66 68 73 77 81 84 90 92 90 87 90 98 83 71 65 59 62 67 66 75 73 73 77 78 79 77 83 80 73 83 80 72 108 121 119 124 124
88 91 92 94 96 98 102 107 95 91 85 85 94 83 80 67 55 54 59 67 67 67 68 69 74 76 71 77 81 79 75 79 89 98 100 140 133 128
93 96 96 90 82 79 80 81 81 80 80 78 86 83 77 69 59 57 44 44 58 60 63 68 72 75 77 70 70 78 78 86 81 83 99 123 144 143
65 65 69 67 67 70 68 67 69 71 73 78 89 82 72 70 67 78 71 59 36 51 52 65 70 72 74 75 78 75 72 75 85 88 86 94 149 150
62 66 73 72 69 68 67 70 69 68 70 75 83 85 81 73 71 69 75 87 68 44 45 59 66 73 74 74 74 66 63 54 81 85 81 80 132 162
70 75 74 66 83 69 68 77 81 83 71 68 72 73 75 72 64 61 64 65 77 80 45 39 51 62 64 69 66 59 62 61 66 74 72 74 101 153
68 68 70 70 67 67 65 68 72 72 73 70 70 70 71 70 71 70 65 68 62 59 71 52 47 54 60 62 63 56 61 61 61 61 71 76 95 146
66 71 67 60 59 55 60 61 68 65 66 74 67 63 61 60 64 70 76 74 71 67 60 45 36 47 51 49 52 43 43 45 54 55 43 66 91 139
59 61 59 53 48 48 52 58 61 62 62 58 69 69 67 59 55 58 62 70 76 71 68 86 67 49 52 51 50 49 42 34 43 50 56 76 97 124
48 48 45 38 35 35 37 40 43 50 58 66 76 68 65 56 54 54 56 61 60 61 68 80 77 57 59 53 47 36 30 28 34 49 68 93 103 107
41 40 43 33 32 29 32 31 27 36 46 53 63 57 65 57 50 49 48 54 59 56 60 56 56 62 57 47 41 40 38 33 45 54 69 85 96 104
40 41 43 38 34 32 23 15 22 27 11 22 34 34 38 44 44 37 41 49 51 68 64 54 47 48 44 38 36 34 46 46 47 60 66 72 67 68
43 54 46 46 40 38 35 21 20 24 20 13 2 11 25 29 30 38 35 47 45 38 46 45 38 32 27 23 24 28 43 50 47 58 62 65 59 56
38 42 52 44 41 40 37 34 26 16 17 10 1 11 17 14 23 30 38 35 31 37 37 42 45 40 39 32 25 28 40 52 51 56 55 55 55 51
38 40 46 53 44 40 37 32 28 26 14 4 4 6 12 9 10 16 18 21 27 36 34 36 43 45 43 36 35 36 40 44 48 51 52 47 40 39
33 35 38 44 47 42 38 33 28 25 20 20 21 19 7 1 7 13 14 19 26 33 36 36 36 33 27 23 28 29 31 29 36 44 49 46 43 43
31 32 34 36 40 43 39 37 34 29 24 19 10 7 2 6 8 11 12 17 23 30 34 37 35 30 27 30 35 36 39 42 40 40 38 45 42 39
31 31 32 33 34 37 41 43 39 37 36 25 19 14 8 13 16 15 16 18 22 25 30 33 31 30 28 27 31 38 40 41 40 41 38 32 31 28
Wind_Direction_850mb
284 284 282 283 281 281 282 280 281 288 286 286 286 286 277 272 280 268 274 277 277 274 274 269 267 263 258 254 256 230 230 227 234 229 222 218 216 217
288 286 284 284 284 280 278 277 277 282 286 283 282 283 281 269 263 272 268 271 278 282 280 279 275 269 267 265 260 256 235 226 228 228 226 222 220 221
286 285 285 285 283 282 282 283 282 281 277 282 283 282 278 275 272 268 273 267 272 275 276 284 286 281 279 272 271 263 246 227 226 226 226 224 221 221
285 284 282 281 280 280 280 278 278 277 278 282 283 283 281 279 275 273 267 267 268 272 274 273 272 278 288 281 271 264 251 241 226 226 226 225 223 219
285 284 284 283 281 281 280 279 277 276 274 275 280 280 276 275 275 270 266 267 268 266 268 271 275 278 282 289 287 267 260 253 239 227 225 228 224 221
281 279 276 275 275 274 274 273 273 273 274 274 276 278 278 276 275 274 268 261 258 264 269 274 276 278 278 279 286 277 268 257 263 241 237 232 226 222
282 282 280 279 279 279 278 276 274 271 270 271 271 272 270 273 272 273 267 266 262 264 268 271 275 275 278 280 275 279 268 254 259 256 249 231 230 222
286 286 286 286 285 284 281 276 271 270 267 264 265 264 266 264 261 263 273 266 261 260 265 266 270 274 278 275 279 275 267 248 245 253 254 239 224 228
293 292 292 292 293 291 290 287 282 272 263 265 267 264 264 263 263 258 256 271 264 260 263 266 269 272 273 274 277 276 262 252 244 243 248 245 234 229
298 299 298 292 293 290 287 285 282 280 272 263 262 266 268 270 269 264 264 255 263 269 265 266 266 268 274 276 278 271 257 261 242 248 245 245 231 221
305 302 300 291 295 290 285 280 282 281 280 270 265 266 268 268 268 268 260 252 257 258 273 275 267 269 269 275 279 269 261 258 250 243 244 266 235 223
305 306 303 295 291 287 283 280 277 277 275 274 272 269 263 261 257 257 259 253 248 247 253 268 261 264 264 269 281 267 268 265 248 243 245 250 239 222
312 313 312 309 293 288 284 277 276 275 272 274 269 268 264 259 256 255 252 253 255 246 235 241 274 264 250 258 279 280 264 267 246 240 242 232 240 212
321 320 322 319 309 290 282 277 278 275 264 266 265 262 260 259 259 257 254 252 252 253 245 245 249 271 258 254 268 265 265 255 250 243 232 220 206 203
326 328 320 316 308 297 292 288 281 272 265 258 253 252 256 259 259 260 258 257 251 247 242 237 241 259 256 252 261 246 234 221 226 224 207 199 193 188
335 336 339 330 330 320 306 298 305 289 276 266 257 256 248 244 251 256 258 256 242 240 233 225 239 250 242 239 247 251 232 209 204 206 206 199 197 194
3 3 8 4 359 8 8 2 355 354 273 261 257 253 241 237 245 248 243 232 225 216 199 202 219 246 231 232 240 240 222 210 205 203 200 188 187 193
20 17 14 20 20 20 28 34 18 13 32 50 85 235 237 243 237 242 256 222 215 206 206 206 210 203 209 222 228 239 225 214 207 203 196 194 192 194
30 29 21 24 27 30 32 40 41 33 24 30 226 214 253 255 254 215 230 215 217 214 220 226 219 220 225 217 229 220 226 221 214 208 208 208 207 204
42 34 33 28 29 31 31 31 37 51 53 39 289 189 152 158 176 188 198 216 215 215 216 217 210 216 224 236 218 212 215 224 216 210 205 208 211 214
42 44 40 41 37 37 35 37 39 39 38 66 110 135 144 45 175 191 199 210 218 216 207 206 207 216 221 223 206 195 206 210 231 223 213 208 201 199
44 42 41 43 47 48 42 40 39 39 43 51 53 73 158 194 191 194 202 201 203 210 206 202 200 210 211 205 197 184 185 189 203 212 215 215 209 199
46 48 49 48 48 50 53 49 43 41 40 47 58 64 82 132 161 181 191 194 197 196 195 188 188 194 199 199 202 190 188 190 191 197 198 209 229 233